Find Starlink 30955

NORAD ID: 58417 Int'l Des: 2023-180 Owner: SPXS Country: US Constellation: starlink operational
LEOCIRCULAR

Current View

Loading 3D Globe...

About Starlink 30955

Starlink 30955 (NORAD 58417) is a starlink constellation satellite (v2 mini) launched Nov 22, 2023 by SPXS of US. It operates in LEO, CIRCULAR orbit with a mass of 730.00 kg.

Upcoming Passes

Passes for default location (London). Set your location on the main map for personalized predictions.

Altitude History

Loading altitude history...

Two-Line Element Set

1 58417U 23180R 26235.24737543 .00000062 00000-0 11750-4 0 9998
2 58417 42.9996 191.4939 0000400 253.1336 106.9472 15.27575678153101
Epoch: Aug 23, 2026 • Age: 23 hours

Current Status

Altitude 486.6 km
Apogee / Perigee N/A
Velocity 7.62 km/s
Sub-Earth Point -17.33°S, 113.58°E
Launch Date Nov 22, 2023
Age 2.7 years
Type internet

Technical Details

Classification Payload
Mass 730.00 kg
Dry Mass 700.00 kg
Total Mass 730.00 kg
Length 0.30 m
Diameter 4.10 m
Span 29.00 m
Shape Box + pan
Manufacturer SPXS
Bus Type Starlink V2M
Phase Status In Orbit
Owner/State SPXS/US

Most Searched